#timestamp,LO_Frequency,Hit,StdDev 
1637067615.3,286046999.2,N
1637067635.2,286046996.7,Y
1637067655.0,286046996.5,P
1637067655.9,286046996.5,N
1637067675.8,286046999.3,N
1637067695.6,286046996.5,N
1637067715.4,286046997.2,N
1637067735.3,286046996.5,N
1637067755.1,286046999.2,N
1637067775.8,286046999.6,N
1637067795.7,286046998.1,N
1637067815.5,286047001.0,N
1637067835.4,286047000.7,N
1637067855.2,286047001.0,N
1637067875.0,286047000.7,N
1637067875.9,286047000.7,N
1637067895.8,286046998.1,N
1637067915.6,286046998.3,N
1637067935.4,286046999.1,N
1637067955.3,286046998.7,N
1637067975.1,286046998.3,N
1637067995.9,286046998.6,N
1637068015.7,286046998.6,N
1637068035.5,286046998.3,N
1637068055.4,286046998.5,N
1637068075.2,286046999.6,N
1637068095.0,286046997.4,N
1637068096.0,286046997.4,N
1637068115.8,286046996.5,N
1637068135.6,286046997.8,N
1637068155.5,286046999.5,N
1637068175.3,286046996.8,N
1637068195.1,286046997.1,N
1637068215.9,286046997.5,N
1637068235.7,286046997.8,N
1637068255.6,286046997.8,N
1637068275.4,286046995.6,Y
1637068295.2,286046996.9,P
1637068315.1,286046996.7,P
1637068316.0,286046996.7,P
1637068335.8,286046997.8,N
1637068355.7,286046997.3,Y
1637068375.5,286047000.2,P
1637068395.3,286047002.4,N
1637068415.2,286047000.4,N
1637068435.9,286046999.7,N
1637068455.7,286047000.1,N
1637068475.6,286047001.0,N
1637068495.4,286046999.8,N
1637068515.2,286047000.2,N
1637068535.1,286047000.0,N
1637068536.0,286047000.0,N
1637068555.8,286046999.7,N
1637068575.7,286047002.7,N
1637068595.5,286046999.9,N
1637068615.3,286046999.9,N
1637068635.2,286046999.7,N
1637068655.0,286047000.9,N
1637068655.9,286047000.9,N
1637068675.7,286046998.5,N
1637068695.6,286046998.1,N
1637068715.4,286046998.8,N
1637068735.3,286046998.7,N
1637068755.1,286046999.0,N
1637068756.0,286046999.0,N
1637068775.8,286046999.5,N
1637068795.7,286046998.1,N
1637068815.5,286046998.6,N
1637068835.3,286047000.9,N
1637068855.2,286047002.5,N
1637068875.0,286047000.5,N
1637068875.9,286047000.5,N
1637068895.8,286047001.1,N
1637068915.6,286047001.2,N
1637068935.4,286046998.6,N
1637068955.3,286046998.4,N
1637068975.1,286046998.7,N
1637068995.8,286046998.9,N
1637069015.7,286047000.8,N
1637069035.5,286046998.9,N
1637069055.4,286046998.8,N
1637069075.2,286046999.2,N
1637069095.0,286046998.9,N
1637069095.9,286046998.9,N
1637069115.8,286046998.4,N
1637069135.6,286046998.4,N
1637069155.5,286046998.3,N
1637069175.3,286046998.6,N
1637069195.1,286047000.7,N
1637069215.9,286047000.7,N
1637069235.7,286046998.5,N
1637069255.5,286046998.9,N
1637069275.4,286046996.9,N
1637069295.2,286046997.0,N
1637069315.1,286046997.8,N
1637069316.0,286046997.8,N
1637069335.8,286046997.0,N
1637069355.6,286046996.6,N
1637069375.5,286046997.0,N
1637069395.3,286046995.1,Y
1637069415.1,286046997.2,P
1637069435.9,286046996.8,P
1637069455.7,286046999.5,N
1637069475.6,286046996.7,N
1637069495.4,286046995.8,Y
1637069515.2,286046999.3,P
1637069535.1,286046996.8,P
1637069536.0,286046996.8,P
1637069555.8,286046998.3,N
1637069575.7,286046999.4,N
1637069595.5,286046999.1,N
1637069615.3,286046996.5,Y
1637069635.2,286046998.1,P
1637069655.0,286047000.5,P
1637069655.9,286047000.5,N
1637069675.7,286047000.8,N
1637069695.6,286047000.8,N
1637069715.4,286047001.0,N
1637069735.3,286047001.1,N
1637069755.1,286047000.3,N
1637069756.0,286047000.3,N
1637069775.8,286047001.0,N
1637069795.7,286047001.1,N
1637069815.5,286047000.6,N
1637069835.3,286047000.5,N
1637069855.2,286047000.9,N
1637069875.0,286047000.9,N
1637069875.9,286047000.9,N
1637069895.8,286047000.4,N
1637069915.6,286047000.9,N
1637069935.4,286046998.6,N
1637069955.3,286046997.1,Y
1637069975.1,286046999.3,P
1637069995.9,286046999.1,N
1637070015.7,286047001.2,N
1637070035.5,286046999.6,N
1637070055.4,286046999.6,N
1637070075.2,286046998.9,N
1637070095.0,286046999.6,N
1637070095.9,286046999.6,N
1637070115.8,286047001.1,N
1637070135.6,286046998.6,N
1637070155.5,286046998.3,N
1637070175.3,286046998.7,N
1637070195.1,286046998.6,N
1637070215.9,286046999.3,N
1637070235.7,286047001.2,N
1637070255.5,286046998.3,N
1637070275.4,286046998.8,N
1637070295.2,286046999.6,N
1637070315.1,286046999.1,N
1637070316.0,286046999.1,N
1637070335.8,286046997.4,Y
1637070355.6,286046997.9,P
1637070375.5,286046997.2,P
1637070395.3,286046999.1,N
1637070415.2,286046996.9,Y
1637070435.9,286047000.5,P
1637070455.7,286046998.4,N
1637070475.6,286046998.5,N
1637070495.4,286046998.2,N
1637070515.2,286046998.1,N
1637070535.1,286047001.2,N
1637070536.0,286047001.2,N
1637070555.8,286046998.1,N
1637070575.7,286047000.9,N
1637070595.5,286046999.0,N
1637070615.3,286047000.7,N
1637070635.2,286047001.2,N
1637070655.0,286047002.8,N
1637070655.9,286047002.8,N
1637070675.8,286047000.5,N
1637070695.6,286046998.2,N
1637070715.4,286046999.9,N
1637070735.3,286047001.1,N
1637070755.1,286047000.4,N
1637070775.8,286047001.1,N
1637070795.7,286047000.8,N
1637070815.5,286046999.3,N
1637070835.4,286046998.5,N
1637070855.2,286046998.7,N
1637070875.0,286046999.5,N
1637070875.9,286046999.5,N
1637070895.8,286046996.5,N
1637070915.6,286046998.8,N
1637070935.5,286046998.6,N
1637070955.3,286047001.0,N
1637070975.1,286046998.5,N
1637070995.9,286047000.1,N
1637071015.7,286047001.9,N
1637071035.5,286047002.2,N
1637071055.4,286047000.0,N
1637071075.2,286047000.2,N
1637071095.1,286046999.8,N
1637071096.0,286046999.8,N
1637071115.8,286047002.4,N
1637071135.6,286047002.2,N
1637071155.5,286047001.9,N
1637071175.3,286047001.8,N
1637071195.1,286047002.7,N
